Location: Canyam�s
(41.5996°N, 2.4450°E)
Time: 04:06:28
(UTC+00:00)

ATLAS CENTAUR R/B - Pass Details

Date: 09 October 2020
Orbit: 479 x 667 km, 64.7° (Epoch: 12 October)

Event Time Altitude Azimuth Distance (km) Brightness Sun altitude
Rises 18:47:20 0° 335° (NNW) 2,543 5.2 -17.5°
Reaches altitude 10° 18:49:39 10° 347° (NNW) 1,665 4.0 -17.9°
Enters shadow 18:52:30 29° 36° (NE) 930 2.2 -18.4°
